TimeCEST,TemperatureF,Dew PointF,Humidity,Sea Level PressureIn,VisibilityMPH,Wind Direction,Wind SpeedMPH,Gust SpeedMPH,PrecipitationIn,Events,Conditions,WindDirDegrees,DateUTC
12:55 AM,53.6,53.6,100,29.98,3.7,North,3.5,-,N/A,,Unknown,10,2012-10-24 22:55:00
1:55 AM,53.6,53.6,100,29.98,3.7,NNE,6.9,-,N/A,,Unknown,20,2012-10-24 23:55:00
2:00 AM,53,53,100,29.98,4,NNE,6.9,,,,,20,2012-10-25 00:00:00
2:55 AM,53.6,53.6,100,29.98,3.7,NNE,4.6,-,N/A,,Unknown,20,2012-10-25 00:55:00
3:55 AM,53.6,51.8,94,29.98,4.3,NNE,5.8,-,N/A,,Unknown,20,2012-10-25 01:55:00
4:55 AM,53.6,51.8,94,29.95,4.3,NE,3.5,-,N/A,,Unknown,50,2012-10-25 02:55:00
5:00 AM,54,53,93,29.96,4,NE,3.5,,,,Mist,50,2012-10-25 03:00:00
5:55 AM,51.8,51.8,100,29.95,4.3,North,5.8,-,N/A,,Unknown,360,2012-10-25 03:55:00
6:55 AM,50.0,50.0,100,29.95,5.0,North,3.5,-,N/A,,Unknown,10,2012-10-25 04:55:00
7:55 AM,50.0,50.0,100,29.95,-9999.0,NNE,5.8,-,N/A,,Clear,30,2012-10-25 05:55:00
8:00 AM,51,51,99,29.95,6,NNE,5.8,,,,,30,2012-10-25 06:00:00
8:55 AM,57.2,53.6,88,29.95,-9999.0,NE,8.1,-,N/A,,Clear,40,2012-10-25 06:55:00
9:55 AM,60.8,55.4,82,29.95,-9999.0,NE,11.5,-,N/A,,Clear,40,2012-10-25 07:55:00
10:55 AM,66.2,57.2,73,29.95,-9999.0,ENE,11.5,-,N/A,,Clear,60,2012-10-25 08:55:00
11:00 AM,67,57,63,29.96,6,ENE,11.5,,,,,60,2012-10-25 09:00:00
11:55 AM,62.6,50.0,63,29.95,-9999.0,NE,4.6,-,N/A,,Clear,40,2012-10-25 09:55:00
12:55 PM,75.2,59.0,57,29.92,-9999.0,NE,3.5,-,N/A,,Clear,50,2012-10-25 10:55:00
1:55 PM,77.0,57.2,50,29.92,-9999.0,WSW,2.3,-,N/A,,Clear,250,2012-10-25 11:55:00
2:00 PM,76,57,41,29.93,9,WSW,2.3,,,,,250,2012-10-25 12:00:00
2:55 PM,77.0,57.2,50,29.89,-9999.0,WSW,4.6,-,N/A,,Clear,250,2012-10-25 12:55:00
3:55 PM,75.2,59.0,57,29.89,-9999.0,WSW,5.8,-,N/A,,Clear,250,2012-10-25 13:55:00
4:55 PM,73.4,59.0,61,29.89,-9999.0,WSW,9.2,-,N/A,,Clear,250,2012-10-25 14:55:00
5:00 PM,74,58,48,29.91,12,WSW,9.2,,,,,250,2012-10-25 15:00:00
5:55 PM,69.8,57.2,64,29.89,-9999.0,West,4.6,-,N/A,,Clear,270,2012-10-25 15:55:00
6:55 PM,66.2,60.8,83,29.92,-9999.0,West,2.3,-,N/A,,Clear,260,2012-10-25 16:55:00
7:55 PM,64.4,60.8,88,29.92,-9999.0,South,2.3,-,N/A,,Clear,180,2012-10-25 17:55:00
8:00 PM,64,61,88,29.92,9,South,2.3,,,,,180,2012-10-25 18:00:00
8:55 PM,59.0,57.2,94,29.92,-9999.0,East,3.5,-,N/A,,Clear,100,2012-10-25 18:55:00
9:55 PM,59.0,57.2,94,29.92,-9999.0,East,3.5,-,N/A,,Clear,80,2012-10-25 19:55:00
10:55 PM,57.2,55.4,94,29.92,-9999.0,NNE,3.5,-,N/A,,Clear,30,2012-10-25 20:55:00
11:55 PM,53.6,53.6,100,29.92,-9999.0,North,2.3,-,N/A,,Clear,10,2012-10-25 21:55:00